This is the latest recevied weather packets stored in our database for station/object KE2A-13. If no packets are shown the sender has not sent any weather packets the latest 10 day(s).
| Time | Temp. | Humidity | Pressure | Rain* | Wind** | Luminosity | Snow |
|---|---|---|---|---|---|---|---|
| 1777540500 | 8.33° C | 99% | 1008.2 hPa | 8.64 mm | - | - | - |
| 1777539600 | 8.33° C | 99% | 1008.3 hPa | 8.64 mm | - | - | - |
| 1777538700 | 8.33° C | 99% | 1008.5 hPa | 8.64 mm | - | - | - |
| 1777537800 | 8.89° C | 98% | 1008.5 hPa | 8.64 mm | - | - | - |
| 1777536900 | 8.33° C | 98% | 1008.6 hPa | 8.64 mm | - | - | - |
| 1777536000 | 8.33° C | 98% | 1008.7 hPa | 8.64 mm | - | - | - |
| 1777535100 | 8.33° C | 98% | 1008.8 hPa | 8.64 mm | - | - | - |
| 1777534200 | 8.33° C | 98% | 1009 hPa | 8.64 mm | - | - | - |
| 1777533300 | 8.33° C | 98% | 1009.1 hPa | 8.64 mm | - | - | - |
| 1777532400 | 8.33° C | 98% | 1009.2 hPa | 8.38 mm | - | - | - |
| 1777531500 | 8.33° C | 98% | 1009.4 hPa | 8.13 mm | - | - | - |
| 1777530600 | 8.33° C | 97% | 1009.4 hPa | 7.87 mm | - | - | - |
| 1777529700 | 8.33° C | 97% | 1009.5 hPa | 7.11 mm | - | - | - |
| 1777528800 | 8.33° C | 97% | 1009.6 hPa | 6.1 mm | - | - | - |
| 1777527900 | 8.33° C | 97% | 1009.7 hPa | 6.1 mm | - | - | - |
| 1777527000 | 8.33° C | 96% | 1009.7 hPa | 4.83 mm | - | - | - |
| 1777526100 | 8.33° C | 96% | 1010.2 hPa | 3.81 mm | - | - | - |
| 1777525200 | 8.33° C | 96% | 1010.2 hPa | 2.54 mm | - | - | - |
| 1777524300 | 8.33° C | 96% | 1010.4 hPa | 1.78 mm | - | - | - |
| 1777523400 | 8.33° C | 96% | 1010.3 hPa | 1.27 mm | - | - | - |
| 1777522500 | 8.89° C | 95% | 1010.7 hPa | 0.76 mm | - | - | - |
| 1777521600 | 8.89° C | 95% | 1010.8 hPa | 7.62 mm | - | - | - |
| 1777520700 | 8.89° C | 95% | 1011 hPa | 7.11 mm | - | - | - |
| 1777519800 | 8.89° C | 95% | 1010.7 hPa | 6.35 mm | - | - | - |
| 1777518900 | 9.44° C | 94% | 1011.2 hPa | 6.6 mm | - | - | - |
* Rain since midnight (hover to see other rain measurements)
** Current wind speed in m/s (hover to see current wind gust speed)